Regional Weather Roundup
Issued by NWS Jackson, KY

Home | Current Version | Previous Version | Text Only | Print | Product List | Glossary On
Versions: 1 2 3 4 5 6 7 8 9 10 11 12 13 14 15 16 17 18 19 20 21 22 23 24 25 26 27 28 29 30 31 32 33 34 35 36 37 38 39 40 41 42 43 44 45 46 47 48 49 50
000
ASUS43 KJKL 210319
RWRJKL

EAST KENTUCKY HOURLY WEATHER ROUNDUP
NATIONAL WEATHER SERVICE JACKSON KY
1100 PM EDT WED AUG 20 2014

NOTE: "FAIR" INDICATES FEW OR NO CLOUDS BELOW 12,000 FEET WITH
NO SIGNIFICANT WEATHER AND/OR OBSTRUCTIONS TO VISIBILITY.

* THESE REPORTS ARE NOT UNDER NWS QUALITY CONTROL AND MAY NOT
  REPORT WEATHER SUCH AS PRECIPITATION AND FOG.

KYZ079-080-083-085-087-088-110-112-115-119-120-210400
...EASTERN KENTUCKY...

CITY           SKY/WX    TMP DP  RH WIND       PRES   REMARKS
JACKSON        CLOUDY    68  66  93 CALM      30.11S
LONDON         CLOUDY    71  67  87 SW3       30.12R
SOMERSET*      CLOUDY    68  68 100 CALM      30.12R
MONTICELLO*    CLOUDY    71  69  93 S3        30.12R
WILLIAMSBURG*  CLEAR     66  66 100 CALM      30.12
MIDDLESBORO*   CLOUDY    68  68  99 CALM      30.14S
HARLAN APT*    CLOUDY    66  66 100 MISG      30.14F
HAZARD APT*    CLEAR     68  68 100 CALM      30.11
BLACK MTN*       N/A     59  59 100 SW8         N/A
PIKEVILLE APT* PTCLDY    68  66  94 SW5       30.10R
BIG SANDY*     CLOUDY    70  67  90 SW5       30.09R
MOREHEAD APT*  CLOUDY    72  70  94 SW5       30.10S
ASHLAND*       CLEAR     75  70  83 NW3       30.02
$$

KYZ035-036-041-042-044-050-067-078-099-210400
...CENTRAL KENTUCKY...

CITY           SKY/WX    TMP DP  RH WIND       PRES   REMARKS
MT STERLING*   CLOUDY    70  68  94 SW6       30.10S
FLEMING/MASON* CLEAR     70  68  94 SW5       30.08R
DANVILLE*      CLOUDY    68  66  94 S5        30.11R
RICHMOND*      CLOUDY    70  66  88 CALM      30.09R
LEXINGTON      CLOUDY    72  67  84 S9        30.08S
FRANKFORT      CLOUDY    72  69  90 S8        30.06R
$$

KYZ091>093-OHZ055-061-077-WVZ005-015-034-035-042-210400
...SOUTHERN OHIO/WEST VIRGINIA...

CITY           SKY/WX    TMP DP  RH WIND       PRES   REMARKS
COVINGTON      CLOUDY    71  68  90 SW6       30.05R
COLUMBUS       PTCLDY    79  65  62 SW7       30.00R
DAYTON         PTCLDY    74  66  76 SW7       30.03R
WILMINGTON     PTCLDY    71  66  84 SW7       30.03R
HUNTINGTON     CLOUDY    75  70  84 S10       30.02R
CHARLESTON     MOCLDY    73  71  93 SW3       30.03R
PINEVILLE*     CLOUDY    72  72 100 MISG      30.15R FOG
BECKLEY        CLOUDY    71  66  84 S3        30.12S
BLUEFIELD      CLOUDY    73  65  75 W10       30.15F
$$

VAZ002-007-008-TNZ017-027-036-066-071-210400
...SOUTHWEST VIRGINIA/EAST TENNESSEE...

CITY           SKY/WX    TMP DP  RH WIND       PRES   REMARKS
WISE*          CLOUDY    64  63  94 SW8       30.17F
JONESVILLE*      N/A     66  66 100 CALM      30.16F
ABINGDON*      CLOUDY    69  69  99 W7        30.14F FOG
BRISTOL        CLOUDY    69  66  90 SW7       30.14F
KNOXVILLE      CLOUDY    69  67  93 CALM      30.12F
OAK RIDGE      CLOUDY    70  68  93 W3        30.16S
CROSSVILLE     CLOUDY    69  64  84 CALM      30.20R
NASHVILLE      LGT RAIN  72  71  97 S3        30.10R
$$

...KEY TO REMARKS...
VSB - VISIBILITY IN MILES
WCI - WIND CHILL INDEX
HX  - HEAT INDEX

$$



USA.gov is the U.S. government's official web portal to all federal, state and local government web resources and services.